Weather History for Socorro, NM

Change the Weather History Date:

Monday, July 22, 2013

  Actual Average Record
Temperature  
Mean Temperature 81 °F -  
Max Temperature 96 °F 91 °F 100 °F (2014)
Min Temperature 66 °F 59 °F 66 °F (2013)
Cooling Degree Days 16    
Growing Degree Days 31 (Base 50)    
Moisture  
Dew Point 52 °F    
Average Humidity 39    
Maximum Humidity 71    
Minimum Humidity 19    
Precipitation  
Precipitation 0.00 in - - ()
Sea Level Pressure  
Sea Level Pressure 30.05 in    
Wind  
Wind Speed 5 mph (North)    
Max Wind Speed 20 mph    
Max Gust Speed 24 mph    
Visibility 10 miles    
Events Thunderstorm    
Averages and records for this station are not official NWS values.
T = Trace of Precipitation, MM = Missing Value Source: NWS Daily Summary

Daily Weather History Graph

Daily Weather History Graph

Search for Another Location

Airport:

Trip Planner

Search our weather history database for the weather conditions in past years. The results will help you decide how hot, cold, wet, or windy it might be!

Date:

Astronomy

Jul. 22, 2013 Rise Set
Actual Time 6:12 AM MDT 8:15 PM MDT
Civil Twilight 5:44 AM MDT 8:43 PM MDT
Nautical Twilight 5:09 AM MDT 9:17 PM MDT
Astronomical Twilight 4:33 AM MDT 9:54 PM MDT
Moon 8:08 PM MDT (7/22) 6:08 AM MDT (7/22)
Length of Visible Light 14h 59m
Length of Day
14h 03m
Full, 100% of the Moon is Illuminated
Jul 22
Full
Jul 22
Full
Jul 29
Last Quarter
Aug 6
New
Aug 14
First Quarter

Hourly Weather History & Observations

Time (MDT) Temp. Heat Index Dew Point Humidity Pressure Visibility Wind Dir Wind Speed Gust Speed Precip Events Conditions
12:15 AM 75.4 °F - 55.4 °F 50% 30.10 in 10.0 mi NW 5.8 mph 16.1 mph N/A   Scattered Clouds
12:35 AM 73.9 °F - 55.0 °F 52% 30.10 in 10.0 mi North 5.8 mph - N/A   Clear
12:55 AM 73.4 °F - 54.9 °F 52% 30.10 in 10.0 mi NNE 3.5 mph - N/A   Clear
1:15 AM 72.9 °F - 54.9 °F 53% 30.09 in 10.0 mi Calm Calm - N/A   Clear
1:35 AM 72.5 °F - 54.9 °F 54% 30.08 in 10.0 mi Calm Calm - N/A   Clear
1:55 AM 72.0 °F - 54.5 °F 54% 30.08 in 10.0 mi Calm Calm - N/A   Clear
2:15 AM 71.4 °F - 55.4 °F 57% 30.07 in 10.0 mi Calm Calm - N/A   Clear
2:35 AM 70.7 °F - 55.2 °F 58% 30.06 in 10.0 mi East 3.5 mph - N/A   Clear
2:55 AM 70.7 °F - 55.2 °F 58% 30.06 in 10.0 mi ENE 6.9 mph - N/A   Clear
3:15 AM 71.2 °F - 55.4 °F 57% 30.06 in 10.0 mi Calm Calm - N/A   Clear
3:35 AM 70.2 °F - 55.8 °F 60% 30.06 in 10.0 mi NW 5.8 mph - N/A   Clear
3:55 AM 69.6 °F - 56.3 °F 63% 30.06 in 10.0 mi NNW 6.9 mph - N/A   Clear
4:15 AM 70.0 °F - 55.8 °F 61% 30.06 in 10.0 mi NNW 6.9 mph - N/A   Clear
4:35 AM 70.0 °F - 56.5 °F 62% 30.06 in 10.0 mi NNW 5.8 mph - N/A   Clear
4:55 AM 69.4 °F - 57.0 °F 65% 30.07 in 10.0 mi NNW 3.5 mph - N/A   Clear
5:15 AM 68.9 °F - 56.8 °F 65% 30.08 in 10.0 mi NNW 3.5 mph - N/A   Clear
5:35 AM 66.7 °F - 57.0 °F 71% 30.08 in 10.0 mi WNW 4.6 mph - N/A   Clear
5:55 AM 67.6 °F - 56.7 °F 68% 30.08 in 10.0 mi WSW 3.5 mph - N/A   Clear
6:15 AM 67.3 °F - 56.7 °F 69% 30.09 in 10.0 mi ENE 3.5 mph - N/A   Clear
6:35 AM 68.2 °F - 56.7 °F 67% 30.10 in 10.0 mi Calm Calm - N/A   Clear
6:55 AM 69.3 °F - 57.4 °F 66% 30.10 in 10.0 mi NW 5.8 mph - N/A   Clear
7:35 AM 71.8 °F - 57.9 °F 62% 30.10 in 10.0 mi NNE 3.5 mph - N/A   Clear
8:35 AM 77.0 °F - 57.2 °F 50% 30.12 in 10.0 mi NNE 8.1 mph - N/A   Clear
8:55 AM 78.4 °F - 56.5 °F 47% 30.12 in 10.0 mi NNE 8.1 mph - N/A   Clear
9:15 AM 79.5 °F - 54.9 °F 42% 30.12 in 10.0 mi NNE 10.4 mph - N/A   Clear
9:35 AM 80.4 °F 80.3 °F 54.9 °F 41% 30.12 in 10.0 mi NNE 9.2 mph - N/A   Clear
9:55 AM 81.7 °F 80.9 °F 53.1 °F 37% 30.12 in 10.0 mi NE 8.1 mph - N/A   Clear
10:15 AM 82.4 °F - 52.7 °F 36% 30.12 in 10.0 mi NNE 9.2 mph - N/A   Clear
10:35 AM 83.7 °F - 52.3 °F 34% 30.12 in 10.0 mi NE 6.9 mph - N/A   Clear
10:55 AM 84.9 °F - 52.7 °F 33% 30.11 in 10.0 mi NNW 5.8 mph - N/A   Clear
11:15 AM 85.6 °F - 52.2 °F 31% 30.11 in 10.0 mi NNE 4.6 mph - N/A   Clear
11:35 AM 86.0 °F - 52.2 °F 31% 30.10 in 10.0 mi Calm Calm - N/A   Clear
11:55 AM 86.9 °F - 51.8 °F 30% 30.10 in 10.0 mi Calm Calm - N/A   Clear
12:15 PM 88.2 °F - 52.0 °F 29% 30.09 in 10.0 mi NNE 8.1 mph - N/A   Clear
12:35 PM 89.6 °F - 51.8 °F 27% 30.08 in 10.0 mi Calm Calm - N/A   Clear
12:55 PM 89.6 °F - 51.8 °F 27% 30.08 in 10.0 mi East 8.1 mph - N/A   Clear
1:15 PM 90.9 °F - 51.8 °F 26% 30.07 in 10.0 mi NE 4.6 mph - N/A Thunderstorm Clear
1:35 PM 91.2 °F - 51.4 °F 26% 30.05 in 10.0 mi East 4.6 mph - N/A   Clear
1:55 PM 92.8 °F - 51.1 °F 24% 30.04 in 10.0 mi North 5.8 mph - N/A Thunderstorm Clear
2:15 PM 92.7 °F - 50.9 °F 24% 30.04 in 10.0 mi East 6.9 mph - N/A   Clear
2:35 PM 93.4 °F - 50.4 °F 23% 30.03 in 10.0 mi NE 5.8 mph - N/A   Clear
2:55 PM 92.7 °F - 49.8 °F 23% 30.02 in 10.0 mi Calm Calm - N/A   Scattered Clouds
3:15 PM 94.5 °F - 49.5 °F 22% 30.01 in 10.0 mi East 5.8 mph - N/A   Clear
3:35 PM 95.7 °F - 48.9 °F 20% 30.00 in 10.0 mi NE 5.8 mph - N/A   Clear
3:55 PM 95.4 °F - 48.6 °F 20% 30.00 in 10.0 mi Calm Calm - N/A   Clear
4:15 PM 95.2 °F - 47.8 °F 20% 30.00 in 10.0 mi East 5.8 mph - N/A   Clear
4:35 PM 95.2 °F - 47.5 °F 20% 29.99 in 10.0 mi SE 4.6 mph - N/A   Clear
4:55 PM 96.4 °F - 47.7 °F 19% 29.99 in 10.0 mi Calm Calm - N/A   Scattered Clouds
5:15 PM 93.9 °F - 46.9 °F 20% 29.98 in 10.0 mi SW 5.8 mph - N/A   Mostly Cloudy
5:35 PM 96.3 °F - 48.2 °F 19% 29.98 in 10.0 mi SW 9.2 mph - N/A   Mostly Cloudy
5:55 PM 96.6 °F - 47.8 °F 19% 29.97 in 10.0 mi West 10.4 mph - N/A   Scattered Clouds
6:15 PM 95.9 °F - 47.7 °F 19% 29.98 in 10.0 mi WNW 8.1 mph - N/A   Clear
6:35 PM 95.0 °F - 47.3 °F 20% 29.97 in 10.0 mi WNW 6.9 mph - N/A   Clear
6:55 PM 92.7 °F - 48.0 °F 22% 29.97 in 10.0 mi WNW 19.6 mph - N/A   Mostly Cloudy
7:15 PM 90.5 °F - 48.6 °F 24% 29.97 in 10.0 mi WNW 19.6 mph 24.2 mph N/A   Scattered Clouds
7:35 PM 88.5 °F - 49.3 °F 26% 29.98 in 10.0 mi WNW 16.1 mph 23.0 mph N/A   Scattered Clouds
7:55 PM 87.8 °F - 48.9 °F 26% 29.98 in 10.0 mi WNW 13.8 mph 19.6 mph N/A   Mostly Cloudy
8:15 PM 87.1 °F - 48.2 °F 26% 29.99 in 10.0 mi WNW 10.4 mph - N/A   Mostly Cloudy
8:35 PM 86.9 °F - 47.7 °F 26% 30.00 in 10.0 mi West 9.2 mph - N/A   Scattered Clouds
8:55 PM 85.3 °F - 48.0 °F 27% 30.02 in 10.0 mi SSW 9.2 mph - N/A Thunderstorm Scattered Clouds
9:15 PM 82.4 °F - 51.1 °F 34% 30.04 in 10.0 mi SSW 16.1 mph - N/A Thunderstorm Thunderstorm
9:35 PM 81.5 °F - 50.4 °F 34% 30.04 in 10.0 mi SW 6.9 mph - N/A   Clear
9:55 PM 82.0 °F - 50.0 °F 33% 30.04 in 10.0 mi WSW 5.8 mph - N/A   Clear
10:15 PM 83.3 °F - 49.5 °F 31% 30.05 in 10.0 mi Calm Calm - N/A   Clear
10:35 PM 82.6 °F - 49.1 °F 31% 30.05 in 10.0 mi Calm Calm - N/A   Clear
10:55 PM 80.6 °F - 51.1 °F 36% 30.06 in 10.0 mi NE 4.6 mph - N/A   Clear
11:15 PM 79.0 °F - 53.2 °F 41% 30.06 in 10.0 mi NE 3.5 mph - N/A   Clear
11:35 PM 77.9 °F - 52.9 °F 42% 30.06 in 10.0 mi NW 3.5 mph - N/A   Clear
11:55 PM 77.0 °F - 52.0 °F 42% 30.07 in 10.0 mi West 3.5 mph - N/A   Clear